Fort Yukon, AK

1:02 AM AKDT on May 29, 2017 (GMT -0800)
Fort Yukon

Weather History for PFYU - May, 2012

Change the Weather History Date:

Thursday, May 24, 2012

  Actual Average Record
Temperature  
Mean Temperature 60 °F -  
Max Temperature 69 °F 58 °F 80 °F (2011)
Min Temperature 50 °F 37 °F 30 °F (2003)
Degree Days  
Heating Degree Days 6    
Growing Degree Days 10 (Base 50)    
Moisture  
Dew Point 42 °F    
Average Humidity 52    
Maximum Humidity 76    
Minimum Humidity 24    
Precipitation  
Precipitation 0.00 in - - ()
Sea Level Pressure  
Sea Level Pressure 29.92 in    
Wind  
Wind Speed 2 mph (South)    
Max Wind Speed 13 mph    
Max Gust Speed 16 mph    
Visibility 10 miles    
Events      
Averages and records for this station are not official NWS values.
T = Trace of Precipitation, MM = Missing Value Source: NWS Daily Summary

Daily Weather History Graph

Daily Weather History Graph

Search for Another Location

Airport or City:

Trip Planner

Search our weather history database for the weather conditions in past years. The results will help you decide how hot, cold, wet, or windy it might be!

Date:

Astronomy

May. 24, 2012 Rise Set
Actual Time 3:10 AM AKDT 12:09 AM AKDT
Civil Twilight Sun does not set Sun does not set
Nautical Twilight Sun does not set Sun does not set
Astronomical Twilight Sun does not set Sun does not set
Moon 6:53 AM AKDT (5/24) 2:02 AM AKDT (5/24)
Length of Visible Light 24h 00m
Length of Day
20h 59m
Waxing Crescent, 13% of the Moon is Illuminated
May 24
Waxing Crescent
May 28
First Quarter
Jun 4
Full
Jun 11
Last Quarter
Jun 19
New

Hourly Weather History & Observations

Time (AKDT) Temp. Dew Point Humidity Pressure Visibility Wind Dir Wind Speed Gust Speed Precip Events Conditions
12:16 AM 59.0 °F 39.2 °F 48% 29.93 in 10.0 mi SSW 3.5 mph - N/A   Overcast
12:56 AM 57.2 °F 41.0 °F 55% 29.93 in 10.0 mi South 3.5 mph - N/A   Partly Cloudy
1:16 AM 57.2 °F 41.0 °F 55% 29.93 in 10.0 mi Calm Calm - N/A   Mostly Cloudy
1:36 AM 55.4 °F 41.0 °F 58% 29.93 in 10.0 mi Calm Calm - N/A   Mostly Cloudy
1:56 AM 53.6 °F 42.8 °F 67% 29.93 in 10.0 mi Calm Calm - N/A   Partly Cloudy
2:16 AM 50.0 °F 41.0 °F 71% 29.94 in 10.0 mi Calm Calm - N/A   Clear
2:36 AM 48.2 °F 41.0 °F 76% 29.94 in 10.0 mi Calm Calm - N/A   Clear
2:56 AM 46.4 °F 39.2 °F 76% 29.94 in 10.0 mi Calm Calm - N/A   Clear
3:16 AM 46.4 °F 39.2 °F 76% 29.95 in 10.0 mi Calm Calm - N/A   Clear
3:36 AM 48.2 °F 41.0 °F 76% 29.95 in 10.0 mi South 3.5 mph - N/A   Mostly Cloudy
3:56 AM 51.8 °F 42.8 °F 71% 29.95 in 10.0 mi Calm Calm - N/A   Overcast
4:16 AM 51.8 °F 42.8 °F 71% 29.96 in 10.0 mi Calm Calm - N/A   Overcast
4:36 AM 51.8 °F 42.8 °F 71% 29.96 in 10.0 mi Calm Calm - N/A   Overcast
4:56 AM 51.8 °F 42.8 °F 71% 29.96 in 10.0 mi Calm Calm - N/A   Overcast
5:16 AM 51.8 °F 42.8 °F 71% 29.96 in 10.0 mi Calm Calm - N/A   Mostly Cloudy
5:36 AM 51.8 °F 42.8 °F 71% 29.96 in 10.0 mi Calm Calm - N/A   Partly Cloudy
5:56 AM 51.8 °F 42.8 °F 71% 29.97 in 10.0 mi Calm Calm - N/A   Partly Cloudy
6:16 AM 50.0 °F 42.8 °F 76% 29.97 in 10.0 mi Calm Calm - N/A   Partly Cloudy
6:36 AM 50.0 °F 42.8 °F 76% 29.97 in 10.0 mi Calm Calm - N/A   Clear
6:56 AM 53.6 °F 44.6 °F 72% 29.97 in 10.0 mi Calm Calm - N/A   Clear
7:16 AM 55.4 °F 44.6 °F 67% 29.97 in 10.0 mi Calm Calm - N/A   Partly Cloudy
7:36 AM 55.4 °F 44.6 °F 67% 29.97 in 10.0 mi Calm Calm - N/A   Scattered Clouds
7:56 AM 55.4 °F 44.6 °F 67% 29.98 in 10.0 mi Calm Calm - N/A   Mostly Cloudy
8:16 AM 53.6 °F 44.6 °F 72% 29.98 in 10.0 mi Calm Calm - N/A   Partly Cloudy
8:36 AM 55.4 °F 44.6 °F 67% 29.98 in 10.0 mi SSE 3.5 mph - N/A   Scattered Clouds
8:56 AM 57.2 °F 44.6 °F 63% 29.97 in 10.0 mi Calm Calm - N/A   Scattered Clouds
9:16 AM 59.0 °F 42.8 °F 55% 29.97 in 10.0 mi Calm Calm - N/A   Scattered Clouds
9:36 AM 60.8 °F 42.8 °F 52% 29.97 in 10.0 mi Calm Calm - N/A   Scattered Clouds
9:56 AM 60.8 °F 42.8 °F 52% 29.97 in 10.0 mi Calm Calm - N/A   Scattered Clouds
10:16 AM 62.6 °F 42.8 °F 48% 29.97 in 10.0 mi Calm Calm - N/A   Scattered Clouds
10:36 AM 62.6 °F 42.8 °F 48% 29.97 in 10.0 mi NW 4.6 mph - N/A   Mostly Cloudy
10:56 AM 64.4 °F 42.8 °F 45% 29.97 in 10.0 mi NW 4.6 mph - N/A   Mostly Cloudy
11:16 AM 64.4 °F 42.8 °F 45% 29.96 in 10.0 mi NW 3.5 mph - N/A   Overcast
11:36 AM 64.4 °F 42.8 °F 45% 29.96 in 10.0 mi Calm Calm - N/A   Scattered Clouds
11:56 AM 64.4 °F 42.8 °F 45% 29.95 in 10.0 mi Calm Calm - N/A   Scattered Clouds
12:16 PM 64.4 °F 42.8 °F 45% 29.95 in 10.0 mi Calm Calm - N/A   Scattered Clouds
12:36 PM 66.2 °F 42.8 °F 43% 29.94 in 10.0 mi West 4.6 mph - N/A   Mostly Cloudy
12:56 PM 60.8 °F 46.4 °F 59% 29.95 in 10.0 mi West 8.1 mph - N/A   Mostly Cloudy
1:16 PM 59.0 °F 50.0 °F 72% 29.94 in 10.0 mi Calm Calm - N/A   Mostly Cloudy
1:36 PM 60.8 °F 50.0 °F 68% 29.93 in 10.0 mi Calm Calm - N/A   Mostly Cloudy
1:56 PM 62.6 °F 46.4 °F 55% 29.93 in 10.0 mi SSE 5.8 mph - N/A   Mostly Cloudy
2:16 PM 64.4 °F 44.6 °F 49% 29.93 in 10.0 mi SE 3.5 mph - N/A   Mostly Cloudy
2:36 PM 66.2 °F 41.0 °F 40% 29.92 in 10.0 mi Calm Calm - N/A   Mostly Cloudy
2:56 PM 66.2 °F 42.8 °F 43% 29.92 in 10.0 mi SSW 5.8 mph - N/A   Mostly Cloudy
3:16 PM 66.2 °F 39.2 °F 37% 29.91 in 10.0 mi NE 3.5 mph - N/A   Partly Cloudy
3:36 PM 68.0 °F 41.0 °F 37% 29.91 in 10.0 mi WNW 4.6 mph - N/A   Clear
3:56 PM 69.8 °F 41.0 °F 35% 29.90 in 10.0 mi SW 4.6 mph - N/A   Mostly Cloudy
4:16 PM 68.0 °F 41.0 °F 37% 29.90 in 10.0 mi SSW 4.6 mph - N/A   Mostly Cloudy
4:36 PM 69.8 °F 39.2 °F 33% 29.90 in 10.0 mi Calm Calm - N/A   Mostly Cloudy
4:56 PM 69.8 °F 39.2 °F 33% 29.89 in 10.0 mi North 3.5 mph - N/A   Scattered Clouds
5:16 PM 68.0 °F 39.2 °F 35% 29.89 in 10.0 mi Calm Calm - N/A   Scattered Clouds
5:36 PM 69.8 °F 39.2 °F 33% 29.88 in 10.0 mi WNW 3.5 mph - N/A   Scattered Clouds
5:56 PM 68.0 °F 39.2 °F 35% 29.87 in 10.0 mi SW 4.6 mph - N/A   Scattered Clouds
6:16 PM 68.0 °F 39.2 °F 35% 29.87 in 10.0 mi South 4.6 mph - N/A   Scattered Clouds
6:36 PM 68.0 °F 39.2 °F 35% 29.86 in 10.0 mi SSE 3.5 mph - N/A   Scattered Clouds
6:56 PM 69.8 °F 39.2 °F 33% 29.86 in 10.0 mi South 4.6 mph - N/A   Scattered Clouds
7:16 PM 66.2 °F 39.2 °F 37% 29.85 in 10.0 mi South 4.6 mph - N/A   Scattered Clouds
7:36 PM 66.2 °F 39.2 °F 37% 29.85 in 10.0 mi South 4.6 mph - N/A   Scattered Clouds
7:56 PM 68.0 °F 41.0 °F 37% 29.85 in 10.0 mi SSE 5.8 mph - N/A   Scattered Clouds
8:16 PM 68.0 °F 39.2 °F 35% 29.84 in 10.0 mi South 4.6 mph - N/A   Overcast
8:36 PM 68.0 °F 41.0 °F 37% 29.84 in 10.0 mi SSE 4.6 mph - N/A   Overcast
8:56 PM 68.0 °F 41.0 °F 37% 29.84 in 10.0 mi South 3.5 mph - N/A   Overcast
9:16 PM 66.2 °F 42.8 °F 43% 29.83 in 10.0 mi Calm Calm - N/A   Overcast
9:36 PM 64.4 °F 42.8 °F 45% 29.83 in 10.0 mi NNE 4.6 mph - N/A   Overcast
9:56 PM 62.6 °F 41.0 °F 45% 29.84 in 10.0 mi NNE 9.2 mph 16.1 mph N/A   Overcast
10:16 PM 60.8 °F 41.0 °F 48% 29.84 in 10.0 mi NE 12.7 mph - N/A   Overcast
10:36 PM 60.8 °F 39.2 °F 45% 29.84 in 10.0 mi ENE 10.4 mph - N/A   Mostly Cloudy
10:56 PM 59.0 °F 39.2 °F 48% 29.84 in 10.0 mi ENE 6.9 mph - N/A   Scattered Clouds
11:16 PM 57.2 °F 39.2 °F 51% 29.84 in 10.0 mi ENE 4.6 mph - N/A   Partly Cloudy
11:36 PM 57.2 °F 39.2 °F 51% 29.84 in 10.0 mi East 6.9 mph - N/A   Scattered Clouds
11:56 PM 57.2 °F 39.2 °F 51% 29.83 in 10.0 mi Calm Calm - N/A   Partly Cloudy